Zurück zum Katalog

STARLINK-31319

AktivKommunikationVLEO
NORAD 59457·PAYLOAD·🇺🇸 United States

Gestartet Apr 10, 2024 von Cape Canaveral Space Force Station

Loading…

Nächste Überflüge (nächste 24 Stunden)

TLE

AktuellSource: CelesTrak SupGP

Epoche: Sep 14, 2026, 21:30 UTC

1 59457C 24068C   26257.89631944  .00060152  00000+0  21770-2 0  2575
2 59457  43.0042  42.4220 0001514 284.6018 325.8186 15.27573948    14

Verfolge STARLINK-31319 in Echtzeit mit AllMySat

Download on the App Store